Zurück zum Katalog

CZ-3C R/B

AktivHEO
NORAD 43875·ROCKET BODY·🇨🇳 China

Gestartet Dec 24, 2018 von Xichang Satellite Launch Center

Loading…

Nächste Überflüge (nächste 24 Stunden)

TLE

AktuellSource: Space-Track

Epoche: Sep 13, 2026, 23:44 UTC

1 43875U 18110B   26256.98909470  .00035936 -70150-8  14914-2 0  9994
2 43875  27.9211 149.3727 6560603 100.5559 334.2023  3.28531342 75487

Verfolge CZ-3C R/B in Echtzeit mit AllMySat

Download on the App Store